Starlink 31460

operational
NORAD ID: 59008 Int'l Des: 2024-036 Owner: SPXS Country: US Constellation: starlink
LEOCIRCULAR

关于 Starlink 31460

正在加载描述...

实时位置

正在加载3D地球...

即将过境

高度历史

Altitude vs Time

uPlot chart will show altitude changes over time

两行轨道根数

1 59008U 24036L 26036.24357517 -.00000201 00000-0 53409-5 0 9998
2 59008 53.1580 228.9782 0001268 100.5691 259.5453 15.30196732110353
Epoch: Feb 5, 2026 • Age: 7 hours

当前状态

高度 492.1 km
速度 7.62 km/s
星下点 -47.22°S, 127.67°E
发射日期 Feb 23, 2024
运行时间 1.9 years
类型 internet

技术详情

分类 Payload
质量 730.00 kg
干质量 700.00 kg
总质量 730.00 kg
长度 0.30 m
直径 4.10 m
跨度 29.00 m
形状 Box + pan
制造商 SPXS
平台类型 Starlink V2M
阶段状态 In Orbit
所有者/国家 SPXS/US

大型星座

Loading constellations...